ARIANE 2 DEB, 33558

Orbit data source: Space-Track

ARIANE 2 DEB, 33558 is space debris in HEO originally from a launch on Fri, 27 Jan 1989 UTC launched from the French Guiana (FRGUI). Debris objects in space refer to the collection of defunct objects orbiting the Earth. Examples of debris include non-operational satellites, rocket bodies, and fragments generated from explosions, collisions, or faulty payload assembly.

Loading next visibility...
Identifier
33558, 1989-006BA
Orbit
HEO
Country
Flag of FRFR
Related business
Manufacturer
EADS/LV
Mission
Spacecraft
Bus & Motor
Unknown
Mass
Unknown
Launch date (UTC)
1989-01-27 (37 years ago)
Launch vehicle
Unknown
Launch site
French Guiana (FRGUI)
Object type
Payload
Rocket body
Debris
Shape & HBR
Unknown shape, 0.2 m
Radar Cross Section
Medium (>0.1 m² and <1 m²)

Expand to show TLE details & history
Last TLE update: 4 days ago

TLE from 4 days ago
0 ARIANE 2 DEB
1 33558U 89006BA  26169.46857416 -.00000169  00000-0  00000+0 0  9998
2 33558  10.6282 337.0355 6943146 262.3331  20.6405  2.21814231 21288
Epoch: 2026-06-18T11:14Z
TLE epoch observation values (Epoch: 2026-06-18T11:14:44.807Z)
Latitude
-0.0004°
Longitude
-98.33178°
Altitude
7,772.169 km
Speed
6.347 km/s
True Right ascension
22h 28m 15s
True Declination
0° 00' 01"
Sunlit
Object was in daylight at epoch
Visualization orbit readout
Latitude
Unknown
Longitude
Unknown
Altitude
Unknown
Speed
Unknown
Apparent Right ascension
Unknown
Apparent Declination
Unknown
Sunlit
N/A
Visualization observer readout
Local Sidereal Time
23:18:26
Azimuth
Unknown
Elevation
Unknown
Doppler factor
Unknown
Orbital elements
Apogee altitude
35,708.948 km
Perigee altitude
1,215.144 km
Semi-major axis
24,840.183 km
Eccentricity
0.69431
Inclination
10.6282°
RAAN
337.0355°
Arg. of periapsis
262.3331°
True anomaly
97.871°
Mean anomaly
20.6405°
Eccentric anomaly
51.98007°
Mean motion
0.55438 °/min
Orbital period
649.37 mins
BSTAR
0
Loading maneuver chart data...
Computing Atmospheric mass density...
Loading historical data...
Loading historical data...
Loading historical data...
Loading historical data...
Loading historical data...
Loading historical data...
Loading historical data...

Documentation

Showing up to 5 results
|